[[{"header":{"parameterUnit":"m.s-1","parameterCategory":1,"la1":30.2991,"la2":30.254,"lo1":-89.0895,"lo2":-89.0444,"dy":0.0017,"dx":0.0017,"nx":28,"ny":28,"refTime":"2023-08-21T21:00:00:Z","depth":0,"parameterNumber":2,"parameterNumberName":"U-component_of_WINDS"},"data":[0,0,0,0,0,0,0,0,0,0,0,0,0,0,0,0,0,0,0,0,0,0,0,0,0,0,0,0,0,0,0,0,0,0,0,0,0,0,0,0,0,0,0,0,0,0,0,0,0,0,0,0,0,0,0,0,0,0,2.3557,2.3559,0,2.3726,2.3728,2.373,2.3747,2.3745,2.3743,2.3742,2.3915,2.3921,2.3927,0,0,0,0,0,0,0,0,0,0,0,0,0,2.3252,2.3257,2.3557,2.3559,2.3561,2.3726,2.3728,2.373,2.3747,2.3745,2.3743,2.3741,2.3913,2.392,2.3928,0,0,0,0,0,0,0,0,0,0,0,0,0,2.3399,2.3259,2.3557,2.359,2.3594,2.3725,2.3728,2.3731,2.3748,2.3745,2.3742,2.374,2.391,2.3919,2.3929,2.4039,0,0,2.3957,2.3961,0,0,0,0,0,0,0,0,2.339,2.341,2.3583,2.3588,2.3593,2.3713,2.3684,2.3834,2.3748,2.3689,2.3742,2.3739,2.385,2.3864,2.3901,2.4047,2.4054,2.3958,2.3964,2.3968,2.397,0,0,0,0,0,0,0,2.338,2.3403,2.3624,2.3585,2.3592,2.3597,2.3615,2.3712,2.3782,2.3694,2.3696,2.3716,2.3852,2.3892,2.3905,2.4057,2.3958,2.3966,2.3972,2.3975,2.4304,2.4307,0,0,0,0,0,0,2.3364,2.3394,2.3619,2.3629,2.3483,2.3604,2.3624,2.3677,2.3781,2.3794,2.3718,2.3716,2.3877,2.3894,2.3912,2.4049,2.3968,2.3976,2.3982,2.4301,2.4305,2.4308,0,0,0,0,0,0,2.3357,2.3384,2.3612,2.3512,2.3542,2.3612,2.3671,2.3682,2.3722,2.3799,2.3811,2.3746,2.3876,2.3898,2.4008,2.4056,2.3981,2.3989,2.4297,2.4302,2.4306,2.4324,0,0,0,0,0,0,2.3348,2.3381,2.3423,2.3513,2.3547,2.3704,2.3674,2.3687,2.3738,2.3737,2.3829,2.3841,2.3876,2.3994,2.4017,2.4067,2.3996,2.4293,2.4299,2.4305,2.432,2.4329,2.4337,0,0,0,0,0,2.3337,2.3421,2.3425,2.3452,2.3601,2.3707,2.3727,2.3764,2.3742,2.3785,2.3835,2.3838,2.4046,2.4005,2.4031,2.4085,2.429,2.4298,2.4304,2.4316,2.4327,2.4337,0,0,0,0,0,0,2.3334,2.3433,2.3439,2.3554,2.3622,2.371,2.3765,2.3775,2.3851,2.3847,2.3891,2.3911,2.402,2.4063,2.4015,2.4198,2.4166,2.4179,2.4166,2.4177,2.4186,2.4174,2.4004,0,0,0,0,0,2.3347,2.3424,2.3507,2.36,2.3634,2.3694,2.3742,2.3765,2.3838,2.3867,2.3924,2.3995,2.4076,2.4129,2.4208,2.4326,2.4348,2.4376,2.4385,2.4391,2.4402,2.4471,2.4485,2.4331,2.4331,2.4331,0,0,2.3374,2.3437,2.3484,2.3602,2.3657,2.3738,2.3718,2.3803,2.3864,2.388,2.3987,2.4032,2.4113,2.4228,2.4282,2.4268,2.445,2.44,2.4405,2.4413,2.4479,2.4494,2.4507,2.4336,2.4335,2.4334,0,0,2.3465,2.352,2.3605,2.3661,2.3746,2.3786,2.3806,2.3893,2.3924,2.4032,2.4046,2.4119,2.4258,2.4316,2.4364,2.448,2.4487,2.4504,2.4549,2.4616,2.4628,2.4639,2.4682,2.4697,2.4514,2.4514,2.4514,0,2.3488,2.3609,2.3647,2.3734,2.3786,2.3804,2.3892,2.3945,2.4051,2.4087,2.407,2.4246,2.4302,2.4432,2.4461,2.4498,2.4524,2.4494,2.4623,2.4634,2.4645,2.4687,2.4703,2.4516,2.4516,2.4516,2.4516,0,2.3634,2.3718,2.3777,2.388,2.3939,2.4025,2.4078,2.4133,2.4152,2.4194,2.4305,2.4373,2.4468,2.45,2.4518,2.4634,2.4623,2.4614,2.4583,2.4661,2.4701,2.4717,2.4519,2.4518,2.4517,2.4517,0,0,2.3727,2.3852,2.3873,2.3921,2.4017,2.4083,2.4171,2.4263,2.4311,2.4384,2.446,2.4578,2.4571,2.4626,2.4651,2.4709,2.4799,2.4693,2.4696,2.4712,2.4933,2.494,2.4958,2.4804,2.4807,2.481,2.4927,0,2.3831,2.3988,2.4026,2.416,2.424,2.4259,2.4336,2.4404,2.4446,2.452,2.4566,2.465,2.4633,2.4666,2.4724,2.4776,2.4844,2.4768,2.4877,2.488,2.4857,2.4979,2.4987,2.5094,2.4942,2.4945,2.4947,0,2.3972,2.4049,2.4192,2.4279,2.4314,2.4382,2.4472,2.4542,2.462,2.4646,2.4708,2.4729,2.4822,2.4786,2.4917,2.4864,2.4911,2.4943,2.4948,2.4961,2.4919,2.4997,2.5129,2.5145,2.4972,2.497,2.4968,0,2.4028,2.4168,2.4272,2.4312,2.4416,2.4464,2.451,2.4585,2.4639,2.4717,2.4753,2.4841,2.4889,2.4958,2.5002,2.4971,2.5131,2.5097,2.5157,2.5156,2.519,2.5188,2.5333,2.5217,2.5217,2.5217,2.5216,0,2.4141,2.4228,2.4299,2.4363,2.4462,2.4505,2.4602,2.4648,2.4716,2.479,2.4812,2.4881,2.4935,2.5012,2.5047,2.5152,2.5173,2.5198,2.5207,2.5198,2.5195,2.523,2.5225,2.5221,2.522,2.5219,2.5219,0,2.4221,2.4272,2.4387,2.4476,2.4501,2.457,2.4647,2.4711,2.4754,2.4848,2.4872,2.494,2.5032,2.5083,2.5198,2.5222,2.534,2.5344,2.5314,2.5318,2.5376,2.537,2.5551,2.5577,2.5442,2.5443,2.5444,0,2.429,2.4358,2.4455,2.4506,2.4553,2.4635,2.4691,2.4737,2.4794,2.4889,2.4942,2.5036,2.5114,2.5261,2.5321,2.541,2.5417,2.5474,2.5431,2.542,2.5421,2.5417,2.5425,2.5482,2.5483,2.5484,2.5485,0,2.4408,2.4431,2.451,2.4599,2.4665,2.4737,2.4808,2.4849,2.4907,2.4971,2.5066,2.5126,2.5245,2.5339,2.5433,2.5482,2.5494,2.5498,2.5517,2.5509,2.549,2.5504,2.5337,2.5494,2.5493,2.5493,2.5492,2.5492,2.4487,2.4549,2.4628,2.4716,2.4775,2.4841,2.4907,2.4958,2.5038,2.5138,2.516,2.5261,2.534,2.5468,2.5519,2.5599,2.5589,2.5615,2.5623,2.5629,2.5633,2.5476,2.5616,2.5616,2.5616,2.5616,2.5616,0,2.4608,2.466,2.4741,2.4841,2.4911,2.4916,2.4996,2.5054,2.5143,2.5215,2.5291,2.5401,2.5493,2.556,2.5654,2.5706,2.5714,2.5729,2.5727,2.5738,2.5636,2.5611,2.5721,2.5721,2.5721,2.5721,2.5721,2.5721,2.468,2.4786,2.4818,2.4954,2.5005,2.5104,2.515,2.5212,2.527,2.5393,2.5469,2.5512,2.5583,2.5683,2.5767,2.5785,2.5819,2.5834,2.5853,2.5756,2.5745,2.5734,2.5711,2.5841,2.5841,2.5949,2.595,2.5951]},{"header":{"parameterUnit":"m.s-1","parameterCategory":1,"la1":30.2991,"la2":30.254,"lo1":-89.0895,"lo2":-89.0444,"dy":0.0017,"dx":0.0017,"nx":28,"ny":28,"refTime":"2023-08-21T21:00:00:Z","depth":0,"parameterNumber":3,"parameterNumberName":"V-component_of_WINDS"},"data":[0,0,0,0,0,0,0,0,0,0,0,0,0,0,0,0,0,0,0,0,0,0,0,0,0,0,0,0,0,0,0,0,0,0,0,0,0,0,0,0,0,0,0,0,0,0,0,0,0,0,0,0,0,0,0,0,0,0,-2.0866,-2.0867,0,-2.0958,-2.0959,-2.096,-2.097,-2.0969,-2.0968,-2.0967,-2.1062,-2.1065,-2.1068,0,0,0,0,0,0,0,0,0,0,0,0,0,-2.07,-2.0703,-2.0866,-2.0867,-2.0868,-2.0958,-2.0959,-2.096,-2.097,-2.0969,-2.0968,-2.0967,-2.1061,-2.1065,-2.1069,0,0,0,0,0,0,0,0,0,0,0,0,0,-2.078,-2.0704,-2.0865,-2.0884,-2.0886,-2.0957,-2.0959,-2.096,-2.0971,-2.0969,-2.0968,-2.0967,-2.1059,-2.1064,-2.1069,-2.1128,0,0,-2.1085,-2.1087,0,0,0,0,0,0,0,0,-2.0775,-2.0786,-2.088,-2.0883,-2.0886,-2.0951,-2.0935,-2.1017,-2.0971,-2.0939,-2.0967,-2.0966,-2.1026,-2.1034,-2.1054,-2.1133,-2.1137,-2.1085,-2.1088,-2.109,-2.1092,0,0,0,0,0,0,0,-2.077,-2.0782,-2.0902,-2.0881,-2.0885,-2.0888,-2.0898,-2.095,-2.0989,-2.0941,-2.0942,-2.0953,-2.1027,-2.1049,-2.1056,-2.1138,-2.1085,-2.109,-2.1093,-2.1095,-2.127,-2.1271,0,0,0,0,0,0,-2.0761,-2.0777,-2.0899,-2.0905,-2.0826,-2.0892,-2.0903,-2.0931,-2.0988,-2.0996,-2.0954,-2.0953,-2.1041,-2.1051,-2.106,-2.1132,-2.109,-2.1095,-2.1098,-2.1268,-2.127,-2.1272,0,0,0,0,0,0,-2.0757,-2.0771,-2.0895,-2.0841,-2.0857,-2.0896,-2.0928,-2.0934,-2.0956,-2.0998,-2.1005,-2.0969,-2.1041,-2.1053,-2.1111,-2.1136,-2.1097,-2.1102,-2.1266,-2.1269,-2.1271,-2.1278,0,0,0,0,0,0,-2.0752,-2.077,-2.0792,-2.0842,-2.086,-2.0945,-2.093,-2.0937,-2.0964,-2.0964,-2.1014,-2.1021,-2.104,-2.1104,-2.1116,-2.1142,-2.1106,-2.1264,-2.1267,-2.127,-2.1275,-2.128,-2.1284,0,0,0,0,0,-2.0746,-2.0791,-2.0794,-2.0808,-2.0889,-2.0946,-2.0957,-2.0978,-2.0966,-2.0989,-2.1017,-2.102,-2.1131,-2.1109,-2.1124,-2.1151,-2.1263,-2.1266,-2.127,-2.1273,-2.1279,-2.1284,0,0,0,0,0,0,-2.0743,-2.0797,-2.0801,-2.0863,-2.09,-2.0948,-2.0978,-2.0983,-2.1024,-2.1022,-2.1047,-2.1058,-2.1116,-2.114,-2.1114,-2.1212,-2.1196,-2.1202,-2.1194,-2.1199,-2.1203,-2.1196,-2.111,0,0,0,0,0,-2.075,-2.0791,-2.0837,-2.0887,-2.0905,-2.0938,-2.0964,-2.0977,-2.1017,-2.1032,-2.1064,-2.1102,-2.1146,-2.1174,-2.1217,-2.1279,-2.129,-2.1305,-2.131,-2.1313,-2.1318,-2.1353,-2.136,-2.1284,-2.1284,-2.1284,0,0,-2.0763,-2.0798,-2.0823,-2.0887,-2.0917,-2.096,-2.0951,-2.0997,-2.1029,-2.1039,-2.1096,-2.1121,-2.1165,-2.1226,-2.1254,-2.1248,-2.1342,-2.1318,-2.132,-2.1323,-2.1358,-2.1365,-2.1371,-2.1286,-2.1286,-2.1285,0,0,-2.081,-2.0841,-2.0886,-2.0917,-2.0963,-2.0984,-2.0995,-2.1043,-2.106,-2.1117,-2.1126,-2.1165,-2.124,-2.1271,-2.1296,-2.1356,-2.136,-2.137,-2.1391,-2.1425,-2.1431,-2.1437,-2.1458,-2.1465,-2.1375,-2.1375,-2.1375,0,-2.0821,-2.0886,-2.0908,-2.0954,-2.0982,-2.0994,-2.1039,-2.1068,-2.1126,-2.1145,-2.1137,-2.1231,-2.1262,-2.133,-2.1345,-2.1365,-2.1378,-2.1363,-2.1429,-2.1434,-2.144,-2.146,-2.1468,-2.1376,-2.1376,-2.1375,-2.1375,0,-2.0898,-2.0942,-2.0973,-2.1029,-2.106,-2.1106,-2.1135,-2.1165,-2.1176,-2.1198,-2.1257,-2.1295,-2.1345,-2.1362,-2.1374,-2.1433,-2.1427,-2.1424,-2.1408,-2.1447,-2.1467,-2.1475,-2.1377,-2.1376,-2.1376,-2.1376,0,0,-2.0944,-2.1011,-2.1022,-2.1048,-2.11,-2.1135,-2.1181,-2.1231,-2.1255,-2.1295,-2.1334,-2.1398,-2.1395,-2.1424,-2.1439,-2.1469,-2.1514,-2.1462,-2.1464,-2.147,-2.1581,-2.1582,-2.1591,-2.1517,-2.1519,-2.152,-2.1577,0,-2.0996,-2.1078,-2.11,-2.117,-2.1212,-2.1224,-2.1265,-2.1301,-2.1324,-2.1363,-2.1389,-2.1433,-2.1426,-2.1444,-2.1474,-2.1502,-2.1536,-2.1498,-2.1554,-2.1556,-2.1541,-2.1601,-2.1603,-2.1655,-2.1585,-2.1586,-2.1587,0,-2.1067,-2.1109,-2.1183,-2.123,-2.1248,-2.1284,-2.1331,-2.1368,-2.141,-2.1425,-2.1458,-2.147,-2.1519,-2.1502,-2.157,-2.1544,-2.1568,-2.1586,-2.1588,-2.1593,-2.1573,-2.1607,-2.1672,-2.1679,-2.1599,-2.1598,-2.1597,0,-2.1093,-2.1167,-2.1221,-2.1242,-2.1299,-2.1324,-2.1348,-2.1389,-2.1417,-2.1459,-2.1478,-2.1525,-2.155,-2.1586,-2.1611,-2.1596,-2.1677,-2.1662,-2.169,-2.1689,-2.1705,-2.1704,-2.1774,-2.1723,-2.1723,-2.1722,-2.1722,0,-2.1148,-2.1193,-2.1233,-2.1266,-2.1317,-2.1342,-2.1392,-2.1417,-2.1453,-2.1491,-2.1505,-2.1541,-2.1572,-2.1612,-2.1632,-2.1685,-2.1697,-2.171,-2.1715,-2.1708,-2.1706,-2.1724,-2.172,-2.1724,-2.1724,-2.1724,-2.1723,0,-2.1184,-2.1213,-2.1273,-2.1322,-2.1335,-2.137,-2.1412,-2.1445,-2.1469,-2.1517,-2.153,-2.1567,-2.1615,-2.1644,-2.1705,-2.1718,-2.1777,-2.178,-2.1762,-2.1764,-2.1791,-2.1787,-2.1873,-2.1886,-2.1827,-2.1827,-2.1828,0,-2.1217,-2.1252,-2.1305,-2.1331,-2.1356,-2.1399,-2.1428,-2.1455,-2.1485,-2.1536,-2.1562,-2.1611,-2.1652,-2.1728,-2.1761,-2.1807,-2.1812,-2.1839,-2.1819,-2.1811,-2.1811,-2.1808,-2.1812,-2.1842,-2.1842,-2.1842,-2.1843,0,-2.1273,-2.1285,-2.1327,-2.1373,-2.1408,-2.1446,-2.1484,-2.1505,-2.1538,-2.1571,-2.162,-2.1652,-2.1714,-2.1762,-2.1812,-2.1838,-2.1846,-2.1849,-2.1858,-2.1851,-2.1839,-2.1845,-2.177,-2.1847,-2.1846,-2.1846,-2.1846,-2.1846,-2.1308,-2.1339,-2.1381,-2.1427,-2.1458,-2.1494,-2.1527,-2.1555,-2.1597,-2.1649,-2.1663,-2.1714,-2.1756,-2.1824,-2.1851,-2.1892,-2.1887,-2.19,-2.1904,-2.1906,-2.1906,-2.1834,-2.1901,-2.1901,-2.1901,-2.1901,-2.1901,0,-2.1363,-2.1391,-2.1433,-2.1485,-2.1522,-2.1527,-2.1569,-2.1599,-2.1644,-2.1683,-2.1722,-2.1779,-2.1826,-2.1863,-2.1912,-2.1937,-2.1942,-2.1949,-2.1947,-2.1953,-2.1908,-2.1895,-2.1944,-2.1944,-2.1944,-2.1944,-2.1944,-2.1944,-2.1396,-2.1449,-2.1467,-2.1536,-2.1564,-2.1615,-2.1638,-2.1671,-2.1702,-2.1765,-2.1804,-2.1828,-2.1866,-2.1917,-2.1961,-2.1971,-2.1988,-2.1994,-2.2004,-2.1961,-2.1956,-2.1951,-2.1939,-2.1997,-2.1997,-2.2045,-2.2046,-2.2046]}]]